DW5827 Weather Reports


time (UTC)temp
F
wind
direction
speed
knots
gust
knots
rain 1hr
in
rain 24hr
in
rain mn
in
humidity
%
barometer
mb
20260507075022 41 0.0 0.9 0.00 0.01 0.00 64 1023.8
20260507074022 41 23 0.9 1.7 0.00 0.01 0.00 64 1023.5
20260507073041 41 0.0 0.9 0.00 0.01 0.00 64 1023.9
20260507072021 41 68 0.9 0.9 0.00 0.01 0.00 63 1023.9
20260507071021 42 68 0.9 1.7 0.00 0.01 0.00 64 1023.9
20260507070021 42 0.0 0.0 0.00 0.01 0.01 64 1023.9
20260507065021 42 0.0 0.9 0.00 0.01 0.01 63 1023.3
20260507064020 43 0.0 0.0 0.00 0.01 0.01 62 1023.6
20260507063020 43 0.0 0.9 0.00 0.01 0.01 61 1023.2
20260507062021 43 0.0 0.9 0.00 0.01 0.01 62 1023.1
20260507061021 44 0.0 0.9 0.00 0.01 0.01 61 1023.0
20260507060020 44 0.0 0.9 0.00 0.01 0.01 59 1023.0
20260507055041 44 0.0 0.9 0.00 0.01 0.01 60 1022.9
20260507054041 45 0.0 0.9 0.00 0.01 0.01 59 1022.8
20260507053021 45 0.0 1.7 0.00 0.01 0.01 58 1022.8
20260507052041 45 0.0 0.9 0.00 0.01 0.01 59 1022.2
20260507051021 46 0.0 0.9 0.00 0.01 0.01 58 1022.6
20260507050021 46 0.0 0.9 0.00 0.01 0.01 57 1022.5
20260507045020 47 0.0 0.9 0.00 0.01 0.01 56 1022.0
20260507044021 47 0.0 0.9 0.00 0.01 0.01 55 1022.0
20260507043041 47 68 0.9 1.7 0.00 0.01 0.01 55 1021.9
20260507042041 48 0.0 0.9 0.00 0.01 0.01 55 1021.7
20260507041021 48 0.0 0.9 0.00 0.01 0.01 53 1021.6
20260507040021 49 0.0 0.9 0.00 0.01 0.01 54 1021.6
20260507035020 50 0.0 0.0 0.00 0.01 0.01 51 1021.5
20260507034021 51 0.0 0.0 0.00 0.01 0.01 50 1021.5
20260507033021 52 0.0 0.0 0.00 0.01 0.01 49 1021.9
20260507032024 53 0.0 0.0 0.00 0.01 0.01 48 1021.7
20260507031021 54 0.0 0.0 0.00 0.02 0.01 47 1021.2
20260507030021 54 0.0 0.9 0.00 0.04 0.01 45 1020.6
20260507025021 54 0.0 0.0 0.00 0.05 0.01 45 1019.9
20260507024021 55 0.0 0.0 0.00 0.06 0.01 42 1019.7
20260507023021 57 0.0 0.0 0.00 0.06 0.01 41 1019.1
20260507022021 58 0.0 0.0 0.00 0.06 0.01 38 1019.0
20260507021021 59 0.0 0.0 0.00 0.06 0.01 36 1018.6
20260507020021 60 0.0 0.9 0.00 0.06 0.01 36 1018.6
20260507015102 61 0.0 0.0 0.00 0.06 0.01 34 1018.6
20260507014021 62 0.0 0.9 0.00 0.07 0.01 33 1018.6
20260507013021 63 0.0 1.7 0.00 0.07 0.01 30 1018.9
20260507012021 64 0.0 0.9 0.00 0.07 0.01 29 1018.9
20260507011021 65 0.0 1.7 0.00 0.07 0.01 28 1018.9
20260507010021 66 248 0.9 5.2 0.00 0.07 0.01 27 1019.3
20260507005022 66 23 0.9 3.5 0.00 0.08 0.01 27 1019.1
20260507004021 67 338 0.9 4.3 0.00 0.08 0.01 27 1019.2
20260507003041 67 315 0.9 3.5 0.00 0.08 0.01 26 1019.1
20260507002021 68 225 0.9 1.7 0.00 0.09 0.01 27 1019.1
20260507001021 68 225 1.7 5.2 0.00 0.12 0.01 25 1019.5
20260507000041 69 225 1.7 5.2 0.00 0.13 0.01 26 1019.6
20260506235021 69 23 0.9 2.6 0.00 0.14 0.01 26 1019.5
20260506234021 68 0 1.7 5.2 0.00 0.14 0.01 27 1019.5
20260506233021 69 293 1.7 4.3 0.00 0.14 0.01 26 1019.6
20260506232021 69 113 1.7 5.2 0.00 0.14 0.01 25 1019.6
20260506231022 69 225 1.7 7.0 0.00 0.15 0.01 27 1019.7
20260506230021 68 135 0.9 2.6 0.00 0.15 0.01 27 1019.8
20260506225021 69 225 0.9 3.5 0.00 0.15 0.01 26 1020.2
20260506224041 69 338 0.9 3.5 0.00 0.15 0.01 27 1020.5
20260506223021 68 225 0.9 3.5 0.00 0.15 0.01 27 1020.1
20260506222021 67 225 0.9 2.6 0.00 0.15 0.01 28 1020.1
20260506221022 67 0 1.7 6.1 0.00 0.15 0.01 29 1020.5
20260506220021 67 225 1.7 7.0 0.00 0.15 0.01 30 1020.7
20260506215021 66 225 1.7 6.1 0.00 0.15 0.01 29 1020.2
20260506214021 66 23 1.7 4.3 0.00 0.15 0.01 29 1020.5
20260506213021 67 248 1.7 4.3 0.00 0.15 0.01 31 1020.9
20260506212021 67 135 0.9 3.5 0.00 0.15 0.01 31 1021.0
20260506211041 67 45 1.7 5.2 0.00 0.15 0.01 30 1021.2
20260506210022 66 248 1.7 4.3 0.00 0.15 0.01 32 1020.8
20260506205021 66 248 1.7 6.1 0.00 0.15 0.01 33 1020.8
20260506204021 66 225 1.7 5.2 0.00 0.15 0.01 33 1021.4
20260506203021 65 90 0.9 2.6 0.00 0.15 0.01 32 1021.0
20260506202021 65 23 1.7 3.5 0.00 0.15 0.01 34 1021.2
20260506201021 64 338 0.9 7.0 0.00 0.15 0.01 35 1021.2
20260506200041 64 248 1.7 5.2 0.00 0.15 0.01 35 1021.4
20260506195022 63 248 1.7 4.3 0.00 0.15 0.01 38 1021.6
20260506194021 63 0 2.6 6.1 0.00 0.15 0.01 37 1021.2
20260506193041 64 338 0.9 3.5 0.00 0.15 0.01 35 1021.6
20260506192021 63 225 1.7 5.2 0.00 0.15 0.01 37 1021.7
20260506191021 63 225 0.9 3.5 0.00 0.15 0.01 38 1021.8
20260506190041 62 225 1.7 4.3 0.00 0.15 0.01 40 1021.9
20260506185022 61 248 0.9 7.0 0.00 0.15 0.01 39 1021.6
20260506184021 61 248 1.7 5.2 0.00 0.15 0.01 40 1022.1
20260506183021 60 248 1.7 6.1 0.00 0.15 0.01 40 1021.6
20260506182022 60 225 0.9 2.6 0.00 0.15 0.01 41 1021.8
20260506181022 59 23 0.9 3.5 0.00 0.15 0.01 41 1021.8
20260506180022 58 180 1.7 5.2 0.00 0.15 0.01 42 1021.9
20260506175022 58 23 0.9 3.5 0.00 0.15 0.01 44 1021.9
20260506174021 58 248 0.9 2.6 0.00 0.15 0.01 43 1021.9
20260506173022 57 225 1.7 4.3 0.00 0.15 0.01 45 1021.9
20260506172021 56 203 0.9 4.3 0.00 0.15 0.01 46 1021.5
20260506171022 56 225 0.9 5.2 0.00 0.15 0.01 46 1021.5
20260506170021 56 0.0 1.7 0.00 0.16 0.01 47 1022.1
20260506165021 55 225 0.9 1.7 0.01 0.16 0.01 48 1021.5
20260506164021 54 248 0.9 3.5 0.01 0.16 0.01 48 1021.4
20260506163022 53 0.0 2.6 0.01 0.16 0.01 50 1021.4
20260506162022 53 225 0.9 4.3 0.01 0.16 0.01 50 1021.4
20260506161021 52 203 0.9 3.5 0.01 0.16 0.01 53 1020.9
20260506160023 52 0.0 1.7 0.01 0.16 0.01 57 1021.4
20260506155021 51 0.0 2.6 0.00 0.15 0.00 55 1020.8
20260506154021 50 0.0 1.7 0.00 0.15 0.00 60 1020.9
20260506153021 50 0.0 0.9 0.00 0.15 0.00 65 1020.9
20260506152022 49 0.0 0.9 0.00 0.15 0.00 69 1020.4
20260506151042 47 0.0 0.9 0.00 0.15 0.00 75 1020.4
20260506150042 45 0.0 0.9 0.00 0.15 0.00 85 1020.0
20260506145021 42 0.0 0.0 0.00 0.15 0.00 94 1019.2
20260506144021 41 0.0 0.0 0.00 0.15 0.00 94 1019.1
20260506143021 38 0.0 0.0 0.00 0.15 0.00 94 1018.0
20260506142021 37 0.0 0.0 0.00 0.15 0.00 93 1017.9
20260506141022 34 0.0 0.0 0.00 0.15 0.00 93 1016.8
20260506140022 32 0.0 0.0 0.00 0.15 0.00 93 1016.0
20260506135041 32 0.0 0.0 0.00 0.15 0.00 93 1016.0
20260506134021 31 0.0 0.0 0.00 0.15 0.00 93 1015.4
20260506133022 31 0.0 0.0 0.00 0.15 0.00 93 1015.3
20260506132022 31 0.0 0.0 0.00 0.15 0.00 93 1015.2
20260506131021 30 0.0 0.9 0.00 0.15 0.00 93 1015.1
20260506130022 30 0.0 0.9 0.00 0.15 0.00 92 1015.1
20260506125021 30 0.0 0.0 0.00 0.15 0.00 92 1014.5
20260506124102 30 0.0 0.9 0.00 0.15 0.00 92 1014.2
20260506123021 30 0.0 0.9 0.00 0.15 0.00 92 1014.0
20260506122022 30 0.0 0.0 0.00 0.15 0.00 92 1014.2
20260506121021 30 0.0 0.0 0.00 0.15 0.00 92 1014.1
20260506120022 30 0.0 0.0 0.00 0.15 0.00 92 1014.0
20260506115021 30 0.0 0.0 0.00 0.15 0.00 92 1013.9
20260506114042 30 0.0 0.0 0.00 0.15 0.00 92 1013.9
20260506113022 30 0.0 0.0 0.00 0.15 0.00 92 1013.8
20260506112022 31 0.0 0.0 0.00 0.15 0.00 92 1014.2
20260506111022 31 0.0 0.0 0.00 0.15 0.00 92 1014.6
20260506110022 31 0.0 0.0 0.00 0.15 0.00 92 1014.9
20260506105041 31 0.0 0.0 0.00 0.15 0.00 92 1014.8
20260506104022 31 0.0 0.0 0.00 0.15 0.00 92 1014.8
20260506103021 31 0.0 0.0 0.00 0.15 0.00 92 1014.7
20260506102022 31 0.0 0.0 0.00 0.15 0.00 92 1014.6
20260506101021 31 0.0 0.0 0.00 0.15 0.00 92 1014.5
20260506100041 31 0.0 0.0 0.00 0.15 0.00 92 1014.4
20260506095022 31 0.0 0.9 0.00 0.15 0.00 92 1014.4
20260506094022 31 0.0 0.0 0.00 0.15 0.00 92 1014.3
20260506093021 31 0.0 0.0 0.00 0.15 0.00 92 1014.6
20260506092022 31 0.0 0.0 0.00 0.15 0.00 92 1014.5
20260506091041 31 0.0 0.0 0.00 0.15 0.00 92 1015.0
20260506090041 32 0.0 0.0 0.00 0.15 0.00 92 1015.8
20260506085042 32 0.0 0.0 0.00 0.15 0.00 92 1015.8
20260506084022 32 0.0 0.0 0.00 0.15 0.00 92 1016.2
20260506083022 32 0.0 0.0 0.00 0.15 0.00 92 1016.2
20260506082021 32 0.0 0.0 0.00 0.15 0.00 91 1016.6
20260506081022 32 0.0 0.0 0.00 0.15 0.00 91 1016.6